[ hide orbit diagram ]
For accurate long-term ephemerides, please instead use our Horizons system.This orbit viewer was implemented using two-body methods, and hence should not be used for determining accurate long-term trajectories (over several years or decades) or planetary encounter circumstances.
Orbital Elements at Epoch 2459000.5 (2020-May-31.0) TDB
Reference: JPL 24 (heliocentric ecliptic J2000)
Element | Value | Uncertainty (1-sigma) | Units |
e | .1602977687189829 | 3.8098e-08 | |
a | 2.728585233945196 | 1.492e-08 | au |
q | 2.291199109184217 | 1.0594e-07 | au |
i | 9.570195234076733 | 4.2049e-06 | deg |
node | 140.9799058229536 | 2.7657e-05 | deg |
peri | 192.3683187037595 | 3.0899e-05 | deg |
M | 317.9007941721998 | 1.4548e-05 | deg |
tp | 2459193.020116674190 (2020-Dec-09.52011667) | 6.6952e-05 | TDB |
period | 1646.283834573939 4.51 | 1.3503e-05 3.697e-08 | d yr |
n | .2186743211829986 | 1.7935e-09 | deg/d |
Q | 3.165971358706176 | 1.7311e-08 | au |
|
| | Orbit Determination Parameters
Additional Information
|
[ show covariance matrix ]
Physical Parameter Table
Parameter |
Symbol |
Value |
Units |
Sigma |
Reference |
Notes |
absolute magnitude |
H |
15.02 |
|
n/a |
E2021B10 |
|
|
45471 (2000 AG204) Discovered 2000-Jan-13 by Klet at Klet |
Reference: 20020822/Numbers.arc | Last Updated: 2004-04-19 |
|
|